Location: Unspecified
(48.5670°N, 0.0000°E)
Time: 03:37:21
(UTC+00:00)

Altair - Pass Details

Date: 31 August 2019
Orbit: 1501 x 1683 km, 47.2° (Epoch: 19 September)

Event Time Altitude Azimuth Distance (km) Brightness Sun altitude
Exits shadow 03:38:43 14° 266° (W) 3,573 8.9 -15.4°
Maximum altitude 03:47:39 84° 181° (S) 1,599 7.5 -14.1°
Drops below altitude 10° 03:57:07 10° 95° (E) 3,722 10.4 -12.8°
Sets 04:00:07 0° 94° (E) 4,685 11.1 -12.4°
